Frederick, OK

2:29 PM CST on December 10, 2016 (GMT -0600)
Frederick Municipal

Weather History for KFDR - October, 2013

Change the Weather History Date:

Friday, October 4, 2013

  Actual Average (KLTS) Record (KLTS)
Temperature  
Mean Temperature 81 °F -  
Max Temperature 91 °F 78 °F 95 °F (2007)
Min Temperature 72 °F 56 °F 38 °F (2014)
Cooling Degree Days 16    
Growing Degree Days 31 (Base 50)    
Moisture  
Dew Point 64 °F    
Average Humidity 58    
Maximum Humidity 81    
Minimum Humidity 42    
Precipitation  
Precipitation 0.00 in - - ()
Sea Level Pressure  
Sea Level Pressure 29.71 in    
Wind  
Wind Speed 18 mph (SSE)    
Max Wind Speed 26 mph    
Max Gust Speed 31 mph    
Visibility 10 miles    
Events      
Averages and records for this station are not official NWS values.
T = Trace of Precipitation, MM = Missing Value Source: NWS Daily Summary

Daily Weather History Graph

Daily Weather History Graph

Search for Another Location

Airport or City:

Trip Planner

Search our weather history database for the weather conditions in past years. The results will help you decide how hot, cold, wet, or windy it might be!

Date:

Astronomy

Oct. 04, 2013 Rise Set
Actual Time 7:32 AM CDT 7:15 PM CDT
Civil Twilight 7:07 AM CDT 7:40 PM CDT
Nautical Twilight 6:38 AM CDT 8:09 PM CDT
Astronomical Twilight 6:09 AM CDT 8:38 PM CDT
Moon 7:09 AM CDT (10/4) 7:00 PM CDT (10/4)
Length of Visible Light 12h 32m
Length of Day
11h 42m
Waning Crescent, 0% of the Moon is Illuminated
Oct 4
Waning Crescent
Oct 4
New
Oct 11
First Quarter
Oct 18
Full
Oct 26
Last Quarter

Hourly Weather History & Observations

Time (CDT) Temp. Heat Index Dew Point Humidity Pressure Visibility Wind Dir Wind Speed Gust Speed Precip Events Conditions
12:53 AM 78.1 °F - 63.0 °F 60% 29.70 in 10.0 mi South 18.4 mph - N/A   Clear
1:53 AM 77.0 °F - 63.0 °F 62% 29.70 in 10.0 mi South 16.1 mph - N/A   Clear
2:53 AM 75.9 °F - 64.0 °F 67% 29.71 in 10.0 mi South 16.1 mph - N/A   Clear
3:53 AM 75.9 °F - 64.0 °F 67% 29.71 in 10.0 mi South 15.0 mph - N/A   Clear
4:53 AM 75.9 °F - 64.0 °F 67% 29.71 in 10.0 mi South 13.8 mph - N/A   Clear
5:53 AM 73.9 °F - 64.9 °F 73% 29.72 in 10.0 mi SSE 16.1 mph - N/A   Clear
6:53 AM 73.9 °F - 64.9 °F 73% 29.73 in 10.0 mi SSE 15.0 mph - N/A   Scattered Clouds
7:53 AM 72.0 °F - 66.0 °F 81% 29.74 in 10.0 mi SSE 12.7 mph - N/A   Clear
8:53 AM 75.0 °F - 66.0 °F 73% 29.75 in 10.0 mi South 19.6 mph 28.8 mph N/A   Clear
9:53 AM 79.0 °F - 66.0 °F 64% 29.75 in 10.0 mi South 26.5 mph 31.1 mph N/A   Clear
11:53 AM 84.0 °F 85.8 °F 64.9 °F 53% 29.75 in 10.0 mi South 21.9 mph - N/A   Clear
12:53 PM 87.1 °F 89.2 °F 66.0 °F 49% 29.74 in 10.0 mi South 20.7 mph 29.9 mph N/A   Clear
1:53 PM 87.1 °F 88.9 °F 64.9 °F 48% 29.72 in 10.0 mi South 21.9 mph 28.8 mph N/A   Clear
2:53 PM 87.1 °F 88.9 °F 64.9 °F 48% 29.70 in 10.0 mi South 24.2 mph 31.1 mph N/A   Clear
3:53 PM 90.0 °F 91.7 °F 64.9 °F 43% 29.69 in 10.0 mi South 21.9 mph 31.1 mph N/A   Clear
4:53 PM 90.0 °F 91.3 °F 64.0 °F 42% 29.68 in 10.0 mi South 19.6 mph - N/A   Clear
5:53 PM 89.1 °F 90.3 °F 64.0 °F 43% 29.68 in 10.0 mi South 20.7 mph 26.5 mph N/A   Clear
6:53 PM 87.1 °F 87.8 °F 63.0 °F 44% 29.67 in 10.0 mi South 18.4 mph - N/A   Clear
7:53 PM 82.9 °F 84.0 °F 63.0 °F 51% 29.67 in 10.0 mi SSE 16.1 mph - N/A   Clear
8:53 PM 82.0 °F 83.4 °F 64.0 °F 54% 29.68 in 10.0 mi SSE 17.3 mph - N/A   Clear
9:53 PM 81.0 °F 82.5 °F 64.0 °F 56% 29.69 in 10.0 mi SSE 18.4 mph - N/A   Clear
10:53 PM 80.1 °F 81.7 °F 64.0 °F 58% 29.71 in 10.0 mi SSE 16.1 mph - N/A   Clear
11:53 PM 75.9 °F - 62.1 °F 62% 29.77 in 10.0 mi NNE 10.4 mph - N/A   Mostly Cloudy